Location: A�t �Alizem
(31.2076°N, 8.7872°W)
Time: 15:45:41
(UTC+00:00)

Cosmos 1943 Rocket - Pass Details

Date: 27 November 2020
Orbit: 811 x 845 km, 71.0° (Epoch: 25 January)

Event Time Altitude Azimuth Distance (km) Brightness Sun altitude
Rises 19:12:04 0° 342° (NNW) 3,355 5.4 -20.9°
Reaches altitude 10° 19:14:31 10° 345° (NNW) 2,424 4.6 -21.5°
Maximum altitude 19:20:03 70° 70° (ENE) 877 2.0 -22.6°
Drops below altitude 10° 19:25:37 10° 153° (SSE) 2,435 4.4 -23.8°
Sets 19:28:04 0° 156° (SSE) 3,370 5.2 -24.3°
